Location: Cuzcurrita-R�o Tir�n
(42.5415°N, 2.9642°W)
Time: 21:46:51
(UTC+00:00)

H-2A R/B - Pass Details

Date: 17 January 2021
Orbit: 576 x 655 km, 98.5° (Epoch: 02 March)

Event Time Altitude Azimuth Distance (km) Brightness Sun altitude
Rises 17:41:05 0° 13° (NNE) 2,980 5.2 -6.6°
Reaches altitude 10° 17:43:19 10° 13° (NNE) 2,058 4.4 -7.0°
Maximum altitude 17:47:49 86° 285° (WNW) 647 2.2 -7.8°
Drops below altitude 10° 17:52:11 10° 197° (SSW) 2,002 5.2 -8.5°
Sets 17:54:21 0° 197° (SSW) 2,892 6.1 -8.9°
